Zurück zum Katalog

CZ-4 DEB

AktivPO
NORAD 26129·DEBRIS·🇨🇳 China

Gestartet Oct 14, 1999 von Taiyuan Satellite Launch Center

Loading…

Nächste Überflüge (nächste 24 Stunden)

TLE

AktuellSource: Space-Track

Epoche: Sep 13, 2026, 23:11 UTC

1 26129U 99057R   26256.96663298  .00000603  00000-0  44913-3 0  9993
2 26129  99.0094  75.7130 0435203 280.6773  74.5661 13.61427771310312

Verfolge CZ-4 DEB in Echtzeit mit AllMySat

Download on the App Store